Marion, SC

12:19 PM EDT on March 28, 2017 (GMT -0400)
Marion County

Weather History for KMAO - November, 2012

Change the Weather History Date:

Monday, November 19, 2012

  Actual Average (KFLO) Record (KFLO)
Temperature  
Mean Temperature 55 °F -  
Max Temperature 60 °F 66 °F 82 °F (1985)
Min Temperature 50 °F 42 °F 20 °F (2014)
Degree Days  
Heating Degree Days 10    
Growing Degree Days 5 (Base 50)    
Moisture  
Dew Point 48 °F    
Average Humidity 80    
Maximum Humidity 100    
Minimum Humidity 68    
Precipitation  
Precipitation 0.00 in - - ()
Sea Level Pressure  
Sea Level Pressure 30.19 in    
Wind  
Wind Speed 11 mph (North)    
Max Wind Speed 15 mph    
Max Gust Speed 23 mph    
Visibility 10 miles    
Events Rain    
Averages and records for this station are not official NWS values.
T = Trace of Precipitation, MM = Missing Value Source: NWS Daily Summary

Daily Weather History Graph

Daily Weather History Graph

Search for Another Location

Airport or City:

Trip Planner

Search our weather history database for the weather conditions in past years. The results will help you decide how hot, cold, wet, or windy it might be!

Date:

Astronomy

Nov. 19, 2012 Rise Set
Actual Time 6:54 AM EST 5:10 PM EST
Civil Twilight 6:27 AM EST 5:37 PM EST
Nautical Twilight 5:57 AM EST 6:08 PM EST
Astronomical Twilight 5:27 AM EST 6:38 PM EST
Moon 12:02 PM EST (11/19) 11:29 PM EST (11/19)
Length of Visible Light 11h 10m
Length of Day
10h 16m
Waxing Crescent, 40% of the Moon is Illuminated
Nov 19
Waxing Crescent
Nov 20
First Quarter
Nov 28
Full
Dec 6
Last Quarter
Dec 13
New

Hourly Weather History & Observations

Time (EST) Temp. Dew Point Humidity Pressure Visibility Wind Dir Wind Speed Gust Speed Precip Events Conditions
12:15 AM 53.6 °F 48.2 °F 82% 30.23 in 10.0 mi North 11.5 mph - N/A   Overcast
12:35 AM 53.6 °F 48.2 °F 82% 30.23 in 10.0 mi North 10.4 mph 19.6 mph N/A   Overcast
12:55 AM 53.6 °F 48.2 °F 82% 30.23 in 10.0 mi North 9.2 mph - N/A   Overcast
1:15 AM 53.6 °F 48.2 °F 82% 30.23 in 10.0 mi North 11.5 mph 20.7 mph N/A Rain Light Rain
1:35 AM 53.6 °F 48.2 °F 82% 30.23 in 10.0 mi North 9.2 mph 16.1 mph N/A   Overcast
1:55 AM 51.8 °F 48.2 °F 88% 30.22 in 7.0 mi North 12.7 mph 19.6 mph N/A   Light Drizzle
2:15 AM 51.8 °F 50.0 °F 94% 30.23 in 10.0 mi North 11.5 mph - N/A   Overcast
2:35 AM 51.8 °F 50.0 °F 94% 30.22 in 10.0 mi North 10.4 mph 16.1 mph N/A   Overcast
2:55 AM 51.8 °F 50.0 °F 94% 30.22 in 10.0 mi North 9.2 mph - N/A   Overcast
3:15 AM 51.8 °F 50.0 °F 94% 30.22 in 10.0 mi North 12.7 mph 18.4 mph N/A   Overcast
3:35 AM 50.0 °F 50.0 °F 100% 30.21 in 10.0 mi North 11.5 mph 17.3 mph N/A   Light Drizzle
3:55 AM 50.0 °F 48.2 °F 94% 30.21 in 10.0 mi North 10.4 mph 17.3 mph N/A   Overcast
4:15 AM 51.8 °F 48.2 °F 88% 30.20 in 10.0 mi North 9.2 mph 16.1 mph N/A   Overcast
4:35 AM 51.8 °F 48.2 °F 88% 30.20 in 10.0 mi North 9.2 mph 16.1 mph N/A   Overcast
4:55 AM 51.8 °F 48.2 °F 88% 30.20 in 10.0 mi North 11.5 mph 18.4 mph N/A   Overcast
5:15 AM 51.8 °F 48.2 °F 88% 30.20 in 10.0 mi North 13.8 mph 21.9 mph N/A   Overcast
5:35 AM 51.8 °F 48.2 °F 88% 30.21 in 10.0 mi North 12.7 mph 17.3 mph N/A   Overcast
5:55 AM 51.8 °F 46.4 °F 82% 30.21 in 10.0 mi North 9.2 mph 16.1 mph N/A   Overcast
6:15 AM 51.8 °F 46.4 °F 82% 30.21 in 10.0 mi North 10.4 mph 17.3 mph N/A   Overcast
6:35 AM 51.8 °F 46.4 °F 82% 30.21 in 10.0 mi North 11.5 mph 16.1 mph N/A   Overcast
6:55 AM 51.8 °F 46.4 °F 82% 30.22 in 10.0 mi North 10.4 mph - N/A   Overcast
7:15 AM 51.8 °F 46.4 °F 82% 30.22 in 10.0 mi North 10.4 mph 16.1 mph N/A   Overcast
7:35 AM 51.8 °F 46.4 °F 82% 30.23 in 10.0 mi North 10.4 mph 18.4 mph N/A   Overcast
7:55 AM 51.8 °F 48.2 °F 88% 30.23 in 10.0 mi North 11.5 mph 17.3 mph N/A   Overcast
8:15 AM 51.8 °F 48.2 °F 88% 30.23 in 10.0 mi North 15.0 mph - N/A   Overcast
8:35 AM 51.8 °F 48.2 °F 88% 30.23 in 10.0 mi North 9.2 mph 17.3 mph N/A   Overcast
8:55 AM 53.6 °F 48.2 °F 82% 30.23 in 10.0 mi North 11.5 mph 19.6 mph N/A   Overcast
9:15 AM 53.6 °F 48.2 °F 82% 30.24 in 10.0 mi North 12.7 mph 18.4 mph N/A   Overcast
9:55 AM 53.6 °F 48.2 °F 82% 30.24 in 10.0 mi North 12.7 mph 20.7 mph N/A   Overcast
10:15 AM 53.6 °F 48.2 °F 82% 30.24 in 10.0 mi North 12.7 mph - N/A   Overcast
10:55 AM 55.4 °F 48.2 °F 77% 30.23 in 10.0 mi North 11.5 mph 18.4 mph N/A   Overcast
11:15 AM 55.4 °F 48.2 °F 77% 30.23 in 10.0 mi North 12.7 mph 20.7 mph N/A   Overcast
11:35 AM 55.4 °F 48.2 °F 77% 30.22 in 10.0 mi North 13.8 mph 19.6 mph N/A   Overcast
11:55 AM 55.4 °F 48.2 °F 77% 30.22 in 10.0 mi North 13.8 mph 19.6 mph N/A   Overcast
12:15 PM 55.4 °F 50.0 °F 82% 30.21 in 10.0 mi North 11.5 mph - N/A   Overcast
12:35 PM 57.2 °F 50.0 °F 77% 30.20 in 10.0 mi North 15.0 mph 21.9 mph N/A   Overcast
12:55 PM 59.0 °F 50.0 °F 72% 30.19 in 10.0 mi North 11.5 mph 17.3 mph N/A   Overcast
1:15 PM 59.0 °F 50.0 °F 72% 30.18 in 10.0 mi North 15.0 mph 18.4 mph N/A   Overcast
1:35 PM 59.0 °F 50.0 °F 72% 30.18 in 10.0 mi NNE 12.7 mph 23.0 mph N/A   Overcast
1:55 PM 59.0 °F 50.0 °F 72% 30.17 in 10.0 mi North 11.5 mph 19.6 mph N/A   Overcast
2:15 PM 59.0 °F 50.0 °F 72% 30.16 in 10.0 mi North 12.7 mph 18.4 mph N/A   Overcast
2:35 PM 59.0 °F 50.0 °F 72% 30.16 in 10.0 mi North 10.4 mph 21.9 mph N/A   Overcast
2:55 PM 60.8 °F 50.0 °F 68% 30.15 in 10.0 mi North 13.8 mph 19.6 mph N/A   Overcast
3:15 PM 59.0 °F 50.0 °F 72% 30.15 in 10.0 mi North 12.7 mph 18.4 mph N/A   Overcast
3:35 PM 59.0 °F 50.0 °F 72% 30.16 in 10.0 mi North 15.0 mph 19.6 mph N/A   Overcast
3:55 PM 59.0 °F 50.0 °F 72% 30.16 in 10.0 mi North 11.5 mph - N/A   Overcast
4:15 PM 59.0 °F 50.0 °F 72% 30.16 in 10.0 mi North 9.2 mph 16.1 mph N/A   Overcast
4:35 PM 59.0 °F 50.0 °F 72% 30.16 in 10.0 mi North 9.2 mph 16.1 mph N/A   Overcast
4:55 PM 59.0 °F 50.0 °F 72% 30.16 in 10.0 mi North 9.2 mph 18.4 mph N/A   Overcast
5:15 PM 57.2 °F 50.0 °F 77% 30.17 in 10.0 mi North 5.8 mph - N/A   Overcast
5:35 PM 57.2 °F 50.0 °F 77% 30.18 in 10.0 mi North 9.2 mph - N/A   Overcast
5:55 PM 57.2 °F 50.0 °F 77% 30.18 in 10.0 mi North 4.6 mph - N/A   Overcast
6:15 PM 57.2 °F 50.0 °F 77% 30.18 in 10.0 mi North 5.8 mph - N/A   Overcast
6:35 PM 57.2 °F 50.0 °F 77% 30.18 in 10.0 mi North 5.8 mph - N/A   Overcast
6:55 PM 57.2 °F 50.0 °F 77% 30.18 in 10.0 mi North 6.9 mph - N/A   Overcast
7:15 PM 57.2 °F 50.0 °F 77% 30.18 in 10.0 mi NNW 5.8 mph - N/A   Overcast
7:35 PM 57.2 °F 50.0 °F 77% 30.18 in 10.0 mi North 5.8 mph - N/A   Overcast
7:55 PM 55.4 °F 48.2 °F 77% 30.18 in 10.0 mi NNW 6.9 mph - N/A   Mostly Cloudy
8:15 PM 55.4 °F 48.2 °F 77% 30.17 in 10.0 mi North 9.2 mph - N/A   Scattered Clouds
8:35 PM 55.4 °F 48.2 °F 77% 30.17 in 10.0 mi North 9.2 mph - N/A   Clear
8:55 PM 55.4 °F 46.4 °F 72% 30.17 in 10.0 mi North 8.1 mph - N/A   Clear
9:15 PM 53.6 °F 46.4 °F 77% 30.16 in 10.0 mi North 6.9 mph - N/A   Clear
9:35 PM 53.6 °F 46.4 °F 77% 30.16 in 10.0 mi North 5.8 mph - N/A   Clear
9:55 PM 53.6 °F 46.4 °F 77% 30.16 in 10.0 mi North 4.6 mph - N/A   Clear
10:15 PM 51.8 °F 46.4 °F 82% 30.15 in 10.0 mi North 5.8 mph - N/A   Clear
10:35 PM 51.8 °F 46.4 °F 82% 30.15 in 10.0 mi North 5.8 mph - N/A   Clear
10:55 PM 51.8 °F 44.6 °F 76% 30.15 in 10.0 mi North 6.9 mph - N/A   Clear
11:15 PM 50.0 °F 44.6 °F 82% 30.14 in 10.0 mi North 4.6 mph - N/A   Clear
11:55 PM 50.0 °F 44.6 °F 82% 30.13 in 10.0 mi North 5.8 mph - N/A   Clear